カタログに戻る

HYPERION-GR1

運用中科学SSO
NORAD 69883·PAYLOAD·🇩🇪 Germany

打ち上げ Jul 7, 2026 から Vandenberg Space Force Base

Loading…

次のパス (今後24時間)

TLE

最新Source: Space-Track

元期: Sep 14, 2026, 12:29 UTC

1 69883U 26156Q   26257.52015854  .00000642  00000-0  70246-4 0  9991
2 69883  97.7464 156.7706 0003782 286.7429  73.3374 14.91182893 10311

AllMySatでHYPERION-GR1をリアルタイム追跡

Download on the App Store